Total_Precipitation_Accumulation
0.03 0.04 0.09 0.06 0.02 0.03 0.04 0.04 0.04 0.05 0.04 0.04 0.04 0.03 0.02 0.01 0.01 0.01 0.01 0.02 0.02 0.03 0.03 0.05 0.07 0.08 0.09 0.07 0.06 0.06 0.05 0.05 0.07 0.08 0.09 0.10 0.13 0.21 0.36 0.42 0.47 0.41 0.30
0.01 0.02 0.06 0.05 0.03 0.03 0.04 0.04 0.06 0.06 0.05 0.05 0.04 0.04 0.03 0.03 0.02 0.02 0.02 0.02 0.02 0.03 0.03 0.04 0.06 0.06 0.05 0.04 0.03 0.03 0.03 0.04 0.07 0.12 0.14 0.12 0.15 0.20 0.27 0.32 0.46 0.34 0.25
0.03 0.02 0.04 0.05 0.04 0.04 0.04 0.05 0.07 0.08 0.08 0.07 0.06 0.06 0.05 0.04 0.02 0.02 0.02 0.02 0.02 0.03 0.03 0.03 0.04 0.04 0.03 0.03 0.02 0.02 0.03 0.06 0.11 0.19 0.27 0.22 0.16 0.26 0.30 0.32 0.34 0.29 0.24
0.05 0.03 0.02 0.04 0.05 0.04 0.04 0.05 0.07 0.07 0.07 0.08 0.11 0.10 0.08 0.04 0.03 0.03 0.03 0.02 0.02 0.02 0.02 0.02 0.02 0.02 0.02 0.02 0.02 0.02 0.04 0.07 0.14 0.24 0.43 0.30 0.18 0.22 0.25 0.24 0.25 0.27 0.21
0.05 0.03 0.03 0.05 0.05 0.04 0.04 0.05 0.08 0.08 0.08 0.09 0.14 0.15 0.11 0.06 0.06 0.06 0.04 0.03 0.03 0.03 0.02 0.02 0.02 0.02 0.02 0.02 0.02 0.03 0.05 0.08 0.13 0.25 0.30 0.32 0.36 0.22 0.19 0.21 0.22 0.26 0.19
0.07 0.04 0.05 0.06 0.06 0.05 0.05 0.06 0.10 0.13 0.10 0.11 0.14 0.13 0.12 0.09 0.12 0.10 0.05 0.04 0.04 0.05 0.04 0.02 0.02 0.02 0.02 0.02 0.03 0.04 0.06 0.10 0.14 0.20 0.22 0.21 0.31 0.27 0.23 0.33 0.39 0.37 0.27
0.08 0.05 0.06 0.07 0.07 0.06 0.05 0.05 0.07 0.11 0.12 0.13 0.14 0.11 0.08 0.06 0.06 0.06 0.05 0.04 0.04 0.04 0.04 0.03 0.04 0.03 0.03 0.02 0.02 0.03 0.06 0.11 0.15 0.18 0.20 0.26 0.34 0.26 0.32 0.54 0.67 0.60 0.48
0.10 0.08 0.09 0.11 0.09 0.08 0.06 0.06 0.06 0.07 0.08 0.08 0.08 0.07 0.05 0.04 0.07 0.08 0.07 0.06 0.05 0.05 0.06 0.05 0.05 0.06 0.05 0.04 0.04 0.05 0.07 0.09 0.11 0.15 0.19 0.26 0.25 0.22 0.45 0.68 0.82 0.81 0.74
0.11 0.09 0.11 0.12 0.10 0.10 0.09 0.07 0.07 0.08 0.08 0.08 0.08 0.08 0.08 0.07 0.08 0.10 0.13 0.12 0.12 0.12 0.12 0.11 0.09 0.08 0.08 0.07 0.06 0.06 0.08 0.12 0.15 0.20 0.23 0.29 0.26 0.39 0.76 0.89 0.88 0.92 0.90
0.17 0.14 0.12 0.11 0.12 0.10 0.09 0.09 0.10 0.10 0.09 0.09 0.10 0.09 0.11 0.10 0.11 0.15 0.16 0.17 0.20 0.24 0.25 0.19 0.17 0.15 0.14 0.12 0.09 0.10 0.11 0.13 0.13 0.18 0.28 0.27 0.31 0.56 0.91 1.05 1.07 1.04 0.99
0.21 0.18 0.15 0.12 0.14 0.14 0.12 0.13 0.14 0.15 0.14 0.13 0.16 0.17 0.17 0.17 0.24 0.33 0.35 0.43 0.43 0.45 0.46 0.42 0.39 0.37 0.34 0.22 0.24 0.28 0.21 0.12 0.14 0.17 0.23 0.23 0.38 0.64 0.93 1.06 1.10 1.11 1.04
0.29 0.23 0.20 0.20 0.20 0.20 0.20 0.26 0.29 0.28 0.31 0.27 0.39 0.46 0.47 0.56 0.53 0.38 0.50 0.75 0.88 0.96 0.93 0.91 0.89 0.75 0.61 0.49 0.82 1.00 0.36 0.24 0.23 0.24 0.30 0.36 0.60 0.87 1.14 1.11 1.05 1.07 1.01
0.35 0.29 0.31 0.32 0.31 0.31 0.39 0.37 0.41 0.51 0.62 0.58 0.61 0.69 0.74 0.77 0.63 0.52 0.62 0.88 1.14 1.26 1.15 1.42 1.47 1.07 1.09 1.20 1.18 1.11 0.63 0.59 0.57 0.57 0.60 0.77 0.98 1.23 1.59 1.43 1.19 1.05 0.97
0.48 0.43 0.59 0.51 0.52 0.62 0.70 0.52 0.52 0.60 0.68 0.74 0.89 0.93 0.99 1.06 0.97 0.94 0.96 1.03 1.23 1.40 1.60 1.70 1.79 1.65 1.61 1.58 1.53 1.36 1.13 1.11 0.99 1.22 1.24 1.18 1.22 1.38 1.78 1.74 1.39 1.17 1.01
0.85 0.76 0.73 0.75 0.86 0.96 0.84 0.81 0.77 0.86 0.90 0.93 1.00 1.12 1.15 1.32 1.38 1.39 1.29 1.26 1.28 1.43 1.58 1.71 1.79 2.09 2.22 1.93 1.60 1.47 1.43 1.48 1.36 1.43 1.37 1.32 1.24 1.31 1.57 1.75 1.62 1.45 1.22
1.13 1.15 1.02 1.03 1.16 1.26 1.28 1.33 1.31 1.17 1.18 1.18 1.14 1.16 1.23 1.38 1.54 1.62 1.54 1.50 1.40 1.42 1.57 1.76 1.93 2.33 2.34 2.19 1.77 1.61 1.56 1.51 1.39 1.33 1.39 1.56 1.41 1.27 1.30 1.46 1.62 1.58 1.47
1.38 1.41 1.41 1.50 1.69 1.77 1.74 1.75 1.69 1.56 1.50 1.42 1.43 1.44 1.42 1.45 1.56 1.57 1.42 1.36 1.42 1.57 1.72 1.78 1.99 2.28 1.98 1.95 1.71 1.65 1.51 1.32 1.18 1.15 1.31 1.44 1.33 1.27 1.32 1.37 1.43 1.46 1.49
1.62 1.72 1.91 2.03 2.08 2.06 2.08 2.12 2.03 1.91 1.78 1.66 1.60 1.62 1.53 1.46 1.48 1.59 1.43 1.34 1.68 1.81 1.87 2.01 2.16 2.16 2.05 1.99 1.79 1.57 1.41 1.32 1.07 1.00 1.00 1.05 1.15 1.03 1.18 1.33 1.33 1.32 1.42
2.05 2.30 2.53 2.57 2.53 2.40 2.37 2.34 2.27 2.10 1.90 1.74 1.61 1.57 1.44 1.45 1.54 1.75 1.68 1.75 2.02 2.08 2.05 1.99 2.23 2.22 2.07 2.03 1.86 1.57 1.27 1.14 0.98 0.86 0.78 0.72 0.80 0.87 0.91 1.00 1.13 1.21 1.44
2.33 2.62 2.63 2.70 2.95 2.86 2.71 2.52 2.27 1.91 1.69 1.66 1.61 1.47 1.47 1.55 1.69 1.94 1.80 1.81 2.00 2.08 2.02 1.98 1.95 2.02 1.85 1.85 1.77 1.47 1.14 0.87 0.81 0.70 0.59 0.57 0.58 0.59 0.68 0.81 0.97 0.89 1.14
2.19 2.45 2.73 2.92 3.03 2.88 2.62 2.37 2.15 1.97 1.87 1.68 1.59 1.53 1.50 1.49 1.58 1.84 1.75 1.84 1.89 1.84 1.81 1.88 1.88 1.74 1.48 1.71 1.74 1.32 0.92 0.73 0.69 0.51 0.49 0.48 0.46 0.48 0.59 0.74 0.89 0.88 0.83
1.96 2.33 2.59 2.86 2.92 2.68 2.40 2.21 2.11 2.06 1.79 1.56 1.55 1.54 1.56 1.64 1.63 1.71 1.75 1.74 1.77 1.75 1.64 1.61 1.70 1.55 1.32 1.50 1.58 1.48 0.96 0.73 0.61 0.47 0.53 0.58 0.59 0.63 0.64 0.68 0.80 0.92 0.93
1.68 1.91 2.09 2.18 2.13 2.01 1.99 2.02 2.01 2.00 1.76 1.70 1.78 1.82 1.80 1.82 1.80 1.79 1.72 1.60 1.47 1.43 1.34 1.37 1.48 1.47 1.32 1.33 1.52 1.68 1.30 0.91 0.81 0.64 0.63 0.65 0.73 0.79 0.74 0.76 0.78 0.89 0.98
1.55 1.74 1.90 1.87 1.72 1.60 1.64 1.80 1.87 1.83 1.78 1.92 2.16 2.08 1.86 1.70 1.57 1.42 1.29 1.26 1.22 1.21 1.12 1.07 1.18 1.22 1.15 1.10 1.24 1.40 1.47 1.42 1.29 0.84 0.61 0.58 0.69 0.78 0.84 0.79 0.71 0.78 0.95
1.31 1.43 1.58 1.65 1.56 1.51 1.51 1.57 1.67 1.70 1.70 1.70 1.70 1.66 1.55 1.38 1.20 1.03 0.94 0.94 0.93 0.93 0.88 0.85 0.87 0.89 0.94 0.94 1.08 1.24 1.34 1.39 1.39 1.25 0.87 0.81 0.83 0.77 0.80 0.79 0.81 0.81 0.86
1.07 1.08 1.05 1.14 1.21 1.25 1.28 1.32 1.34 1.31 1.28 1.22 1.14 1.12 1.05 0.96 0.80 0.68 0.65 0.68 0.73 0.79 0.77 0.75 0.77 0.77 0.83 0.94 0.98 1.09 1.22 1.21 1.22 1.29 1.08 0.97 0.92 0.82 0.82 0.86 0.86 0.92 0.91